User: anonymous   Login
Location: Orson Pratt Observatory
(40.2472°N, 111.6506°W)
Time: 10:13:50
(UTC-06:00)
Language:

SEEDS - Orbit

View from above orbital plane
View from above orbital plane
View from above satellite
View from above satellite

Ground track
Ground track

The orbit data is extracted from the following two-line orbital elements,

1 32791U 08021J   19079.76290419 +.00000373 +00000-0 +43252-4 0  9990
2 32791 097.5303 089.5936 0013599 170.8830 189.2639 14.90755689590630
Epoch (UTC): 20 March 2019 18:18:34
Eccentricity: 0.0013599
inclination: 97.5303°
perigee height: 586 km
apogee height: 605 km
right ascension of ascending node: 89.5936°
argument of perigee: 170.8830°
revolutions per day: 14.90755689
mean anomaly at epoch: 189.2639°
orbit number at epoch: 59063

The dashed part of the orbit path shows where the satellite is in the earth's shadow,  

DLR